When you browse on this site, cookies collect data to enhance your experience and personalize the content and advertising you see.
Visit our Privacy Policy to learn more. By continuing to use the site, you agree to this use of cookies and data.
  • en France
  • Liste des pays
  • À 7 jours
  • Température de l'eau
  • Carte météo
  • Widgets météo
  • user-avatar
    Se connecter

    Météo par heure à Swerin

    Ce jour, 7 Décembre, Samedi

    Heure Température Précipitation Vent Pression Humidité
    00:00 +5°C° 0.1 mm 7 m/s 745 mmHg 89%
    01:00 +5°C° 0 mm 6 m/s 745 mmHg 87%
    02:00 +5°C° 0.3 mm 7 m/s 745 mmHg 88%
    03:00 +5°C° 0.3 mm 7 m/s 744 mmHg 89%
    04:00 +5°C° 0.3 mm 7 m/s 744 mmHg 90%
    05:00 +6°C° 0.5 mm 7 m/s 744 mmHg 90%
    06:00 +6°C° 0.5 mm 8 m/s 745 mmHg 90%
    07:00 +6°C° 0 mm 7 m/s 745 mmHg 89%
    08:00 +6°C° 0.3 mm 8 m/s 746 mmHg 88%
    09:00 +6°C° 0.3 mm 8 m/s 747 mmHg 87%
    10:00 +6°C° 0.3 mm 8 m/s 747 mmHg 86%
    11:00 +7°C° 0.5 mm 8 m/s 748 mmHg 86%
    12:00 +8°C° 0.5 mm 7 m/s 749 mmHg 85%
    13:00 +8°C° 0.5 mm 7 m/s 749 mmHg 85%
    14:00 +6°C° 0.2 mm 7 m/s 749 mmHg 85%
    15:00 +7°C° 0.2 mm 6 m/s 750 mmHg 84%
    16:00 +7°C° 0.2 mm 6 m/s 750 mmHg 84%
    17:00 +7°C° 0 mm 6 m/s 750 mmHg 86%
    18:00 +5°C° 0 mm 6 m/s 751 mmHg 88%
    19:00 +5°C° 0 mm 6 m/s 752 mmHg 90%
    20:00 +5°C° 0 mm 6 m/s 751 mmHg 89%
    21:00 +7°C° 0 mm 6 m/s 751 mmHg 88%
    22:00 +6°C° 0 mm 7 m/s 751 mmHg 87%
    23:00 +7°C° 0 mm 6 m/s 751 mmHg 87%

    Demain, 8 Décembre, Dimanche

    Heure Température Précipitation Vent Pression Humidité
    00:00 +7°C° 0 mm 6 m/s 751 mmHg 86%
    01:00 +5°C° 0 mm 6 m/s 751 mmHg 86%
    02:00 +5°C° 0 mm 6 m/s 750 mmHg 86%
    03:00 +5°C° 0 mm 6 m/s 749 mmHg 87%
    04:00 +5°C° 0 mm 7 m/s 749 mmHg 87%
    05:00 +5°C° 0 mm 7 m/s 748 mmHg 85%
    06:00 +5°C° 0 mm 7 m/s 747 mmHg 84%
    07:00 +5°C° 0 mm 8 m/s 747 mmHg 82%
    08:00 +5°C° 0.1 mm 8 m/s 746 mmHg 83%
    09:00 +6°C° 0.1 mm 8 m/s 744 mmHg 83%
    10:00 +6°C° 0.1 mm 9 m/s 743 mmHg 83%
    11:00 +6°C° 0.6 mm 9 m/s 743 mmHg 84%
    12:00 +7°C° 0.6 mm 9 m/s 742 mmHg 84%
    13:00 +7°C° 0.6 mm 10 m/s 741 mmHg 84%
    14:00 +7°C° 0.2 mm 9 m/s 741 mmHg 83%
    15:00 +7°C° 0.2 mm 8 m/s 741 mmHg 81%
    16:00 +8°C° 0.2 mm 7 m/s 741 mmHg 79%
    17:00 +7°C° 0 mm 6 m/s 741 mmHg 80%
    18:00 +5°C° 0 mm 6 m/s 742 mmHg 82%
    19:00 +4°C° 0 mm 6 m/s 742 mmHg 83%
    20:00 +4°C° 0 mm 6 m/s 742 mmHg 83%
    21:00 +4°C° 0 mm 6 m/s 741 mmHg 83%
    22:00 +4°C° 0 mm 6 m/s 741 mmHg 83%
    23:00 +4°C° 0.1 mm 7 m/s 740 mmHg 82%

    Après-demain, 9 Décembre, Lundi

    Heure Température Précipitation Vent Pression Humidité
    00:00 +4°C° 0.1 mm 7 m/s 740 mmHg 82%
    01:00 +4°C° 0.1 mm 7 m/s 740 mmHg 81%
    02:00 +4°C° 0.1 mm 7 m/s 740 mmHg 82%
    03:00 +4°C° 0.1 mm 7 m/s 739 mmHg 83%
    04:00 +3°C° 0.1 mm 6 m/s 739 mmHg 83%
    05:00 +3°C° 0 mm 6 m/s 739 mmHg 83%
    06:00 +3°C° 0 mm 6 m/s 739 mmHg 83%
    07:00 +3°C° 0 mm 7 m/s 738 mmHg 83%
    08:00 +3°C° 0.1 mm 7 m/s 738 mmHg 83%
    09:00 +2°C° 0.1 mm 8 m/s 737 mmHg 83%
    10:00 +4°C° 0.1 mm 8 m/s 737 mmHg 83%
    11:00 +4°C° 0.1 mm 8 m/s 737 mmHg 81%
    12:00 +4°C° 0.1 mm 8 m/s 736 mmHg 79%
    13:00 +5°C° 0.1 mm 8 m/s 736 mmHg 78%
    14:00 +4°C° 0.3 mm 8 m/s 736 mmHg 81%
    15:00 +4°C° 0.3 mm 7 m/s 736 mmHg 85%
    16:00 +3°C° 0.3 mm 7 m/s 735 mmHg 88%
    17:00 +3°C° 0.5 mm 6 m/s 737 mmHg 89%
    18:00 +4°C° 0.5 mm 6 m/s 738 mmHg 90%
    19:00 +4°C° 0.5 mm 6 m/s 739 mmHg 90%
    20:00 +4°C° 0 mm 7 m/s 741 mmHg 83%
    21:00 +2°C° 0 mm 8 m/s 742 mmHg 75%
    22:00 +2°C° 0 mm 9 m/s 744 mmHg 67%
    23:00 +2°C° 0 mm 9 m/s 745 mmHg 69%

    10 Décembre, Mardi

    Heure Température Précipitation Vent Pression Humidité
    00:00 +1°C° 0 mm 8 m/s 747 mmHg 70%
    01:00 0°C° 0 mm 8 m/s 748 mmHg 72%
    02:00 0°C° 0.1 mm 8 m/s 750 mmHg 70%
    03:00 +1°C° 0.1 mm 9 m/s 751 mmHg 69%
    04:00 +1°C° 0.1 mm 9 m/s 752 mmHg 68%
    05:00 0°C° 0 mm 8 m/s 754 mmHg 70%
    06:00 0°C° 0 mm 7 m/s 755 mmHg 72%
    07:00 -1°C° 0 mm 6 m/s 757 mmHg 75%
    08:00 0°C° 0 mm 5 m/s 758 mmHg 74%
    09:00 0°C° 0 mm 4 m/s 759 mmHg 74%
    10:00 0°C° 0 mm 4 m/s 760 mmHg 74%
    11:00 +2°C° 0 mm 3 m/s 760 mmHg 71%
    12:00 +3°C° 0 mm 2 m/s 761 mmHg 68%
    13:00 +4°C° 0 mm 2 m/s 761 mmHg 65%
    14:00 +3°C° 0 mm 2 m/s 761 mmHg 71%
    15:00 +3°C° 0 mm 2 m/s 761 mmHg 77%
    16:00 +1°C° 0 mm 3 m/s 761 mmHg 83%
    17:00 +1°C° 0 mm 3 m/s 761 mmHg 84%
    18:00 0°C° 0 mm 4 m/s 760 mmHg 85%
    19:00 0°C° 0 mm 4 m/s 760 mmHg 86%
    20:00 0°C° 0 mm 5 m/s 759 mmHg 84%
    21:00 -1°C° 0 mm 6 m/s 759 mmHg 82%
    22:00 -1°C° 0 mm 7 m/s 758 mmHg 80%
    23:00 -1°C° 0 mm 7 m/s 757 mmHg 77%

    11 Décembre, Mercredi

    Heure Température Précipitation Vent Pression Humidité
    00:00 -1°C° 0 mm 7 m/s 756 mmHg 75%
    01:00 -1°C° 0 mm 8 m/s 755 mmHg 72%
    02:00 -1°C° 0 mm 8 m/s 754 mmHg 70%
    03:00 0°C° 0 mm 8 m/s 754 mmHg 67%
    04:00 0°C° 0 mm 8 m/s 753 mmHg 65%
    05:00 0°C° 0.7 mm 8 m/s 752 mmHg 72%
    06:00 -1°C° 0.7 mm 8 m/s 752 mmHg 80%
    07:00 -1°C° 0.7 mm 8 m/s 752 mmHg 88%
    08:00 0°C° 0.5 mm 7 m/s 752 mmHg 89%
    09:00 0°C° 0.5 mm 7 m/s 752 mmHg 90%
    10:00 +2°C° 0.5 mm 6 m/s 752 mmHg 91%
    11:00 +2°C° 0.1 mm 5 m/s 752 mmHg 90%
    12:00 +3°C° 0.1 mm 5 m/s 752 mmHg 89%
    13:00 +4°C° 0.1 mm 4 m/s 752 mmHg 88%
    14:00 +4°C° 0 mm 3 m/s 752 mmHg 90%
    15:00 +3°C° 0 mm 3 m/s 752 mmHg 91%
    16:00 +3°C° 0 mm 3 m/s 752 mmHg 93%
    17:00 +3°C° 0 mm 3 m/s 752 mmHg 93%
    18:00 +2°C° 0 mm 3 m/s 752 mmHg 94%
    19:00 +2°C° 0 mm 3 m/s 752 mmHg 94%
    20:00 +2°C° 0 mm 3 m/s 752 mmHg 95%
    21:00 +1°C° 0 mm 3 m/s 752 mmHg 95%
    22:00 +1°C° 0 mm 3 m/s 751 mmHg 95%
    23:00 +1°C° 0 mm 3 m/s 751 mmHg 95%

    12 Décembre, Jeudi

    Heure Température Précipitation Vent Pression Humidité
    00:00 +1°C° 0 mm 3 m/s 751 mmHg 96%
    01:00 +1°C° 0 mm 3 m/s 750 mmHg 96%
    02:00 0°C° 0 mm 3 m/s 750 mmHg 95%
    03:00 0°C° 0 mm 3 m/s 750 mmHg 95%
    04:00 0°C° 0 mm 3 m/s 749 mmHg 95%
    05:00 0°C° 0 mm 3 m/s 749 mmHg 94%
    06:00 -1°C° 0 mm 4 m/s 749 mmHg 94%
    07:00 -1°C° 0 mm 4 m/s 749 mmHg 94%
    08:00 -1°C° 0 mm 4 m/s 749 mmHg 93%
    09:00 0°C° 0 mm 4 m/s 749 mmHg 92%
    10:00 0°C° 0 mm 4 m/s 749 mmHg 92%
    11:00 +1°C° 0 mm 4 m/s 749 mmHg 89%
    12:00 +1°C° 0 mm 5 m/s 749 mmHg 87%
    13:00 +2°C° 0 mm 5 m/s 749 mmHg 84%
    14:00 +3°C° 0 mm 4 m/s 749 mmHg 84%
    15:00 +1°C° 0 mm 4 m/s 749 mmHg 84%
    16:00 +1°C° 0 mm 4 m/s 749 mmHg 84%
    17:00 +1°C° 0 mm 4 m/s 749 mmHg 85%
    18:00 0°C° 0 mm 5 m/s 748 mmHg 85%
    19:00 0°C° 0 mm 5 m/s 748 mmHg 86%
    20:00 0°C° 0 mm 5 m/s 747 mmHg 85%
    21:00 -1°C° 0 mm 6 m/s 747 mmHg 84%
    22:00 -1°C° 0 mm 6 m/s 746 mmHg 83%
    23:00 -1°C° 0 mm 6 m/s 745 mmHg 86%
    Voir plus